SCP
1 1 1 1 0 0 1 1 1 1 1 0 0 0 0 0 0 0 1 1 1 2 1 1 1 1 1 1 1 1 1 1 1 1 1 1 1 1 1 1 1 1 1
1 1 1 1 0 0 0 1 1 0 0 0 0 0 0 0 0 0 1 1 1 2 2 2 2 2 1 1 2 2 1 1 1 1 1 1 1 1 1 1 1 1 1
1 1 1 1 0 0 0 0 0 0 0 0 0 0 0 0 0 0 1 1 1 2 2 2 2 2 2 2 2 2 1 1 1 1 1 1 1 1 1 1 1 1 1
1 1 1 1 1 0 1 1 1 0 0 0 0 0 0 0 0 1 1 1 1 2 2 2 2 2 2 2 2 2 1 1 1 1 1 1 1 1 1 1 1 1 1
1 1 1 1 1 1 1 1 1 1 0 0 0 0 0 0 1 1 1 1 1 1 2 2 2 2 2 2 1 1 1 1 1 1 1 1 1 1 1 1 1 1 1
1 1 1 1 1 1 1 1 1 1 1 0 0 0 0 0 1 1 1 1 1 1 1 1 2 2 2 2 1 1 2 2 2 2 2 1 1 1 1 1 1 1 1
1 1 1 1 1 1 1 1 1 1 1 1 1 1 1 1 1 1 1 1 1 1 1 1 1 1 1 1 1 1 1 1 2 2 2 1 1 1 1 1 1 1 1
1 1 1 1 1 1 1 1 1 1 1 1 1 1 1 1 1 1 1 1 1 1 1 1 1 1 1 1 1 1 1 1 1 1 1 1 1 1 1 1 1 0 0
1 1 1 1 1 1 1 1 1 1 1 1 1 1 1 1 1 0 1 1 1 1 1 1 0 0 0 0 1 1 1 1 1 1 1 1 1 1 1 1 1 0 0
1 1 1 1 1 1 1 1 1 2 2 1 1 1 1 1 1 1 0 0 0 0 0 0 0 0 0 0 0 0 0 1 1 1 1 1 1 1 1 1 1 1 1
1 1 1 0 1 1 1 1 1 1 1 1 1 1 1 1 1 1 1 0 0 0 0 0 0 0 0 0 0 0 0 0 0 1 1 1 1 1 1 1 1 1 1
0 0 0 0 0 0 0 0 1 1 1 1 1 1 1 1 1 1 1 1 0 0 0 0 0 0 0 0 0 0 0 0 0 0 1 1 1 1 0 0 0 1 1
0 0 0 0 0 0 0 0 0 0 0 0 0 0 0 0 0 1 1 1 0 0 0 0 0 0 0 0 0 0 0 0 0 0 0 1 1 1 1 0 0 0 0
0 0 0 0 0 0 0 0 0 0 0 0 0 0 0 0 0 0 0 0 0 0 0 0 0 0 0 0 0 0 0 0 0 0 0 0 1 1 1 0 0 0 0
0 0 0 0 0 0 0 0 0 0 0 0 0 0 0 0 0 0 0 0 0 0 0 0 0 0 0 0 0 0 0 0 0 0 0 0 0 1 1 0 0 0 0
0 0 0 0 0 0 0 0 0 0 0 0 0 0 0 0 0 0 0 0 0 0 0 0 0 0 0 0 0 0 0 0 0 0 0 0 0 0 0 0 0 0 0
0 0 0 0 0 0 0 0 0 0 0 0 0 0 0 0 0 0 0 0 0 0 0 0 0 0 0 0 0 0 0 0 0 0 0 0 0 0 0 0 0 0 0
0 0 0 0 0 0 0 0 0 0 0 0 0 0 0 0 0 0 0 0 0 0 0 0 0 0 0 0 0 0 0 0 0 0 0 0 0 0 0 0 0 0 0
0 0 0 0 0 0 0 0 0 0 0 0 0 0 0 0 0 0 0 0 0 0 0 0 0 0 0 0 0 0 0 0 0 0 0 0 0 0 0 0 0 0 0
0 0 0 0 0 0 0 0 0 0 0 0 0 0 0 0 0 0 0 0 0 0 0 0 0 0 0 0 0 0 0 0 0 0 0 0 0 0 0 0 0 0 0
0 0 0 0 0 0 0 0 0 0 0 0 0 0 0 0 0 0 0 0 0 0 0 0 0 0 0 0 0 0 0 0 0 0 0 0 0 0 0 0 0 0 0
0 0 0 0 0 0 0 0 0 0 0 0 0 0 0 0 0 0 0 0 0 0 0 0 0 0 0 0 0 0 0 0 0 0 0 0 0 0 0 0 0 0 0
0 0 0 0 0 0 0 0 0 0 0 0 0 -0 -0 -0 -0 0 0 0 0 0 0 0 0 0 0 0 0 0 0 0 0 0 0 0 0 0 0 0 0 0 0
0 0 0 0 0 0 0 0 0 0 0 -0 -0 -0 -0 -0 -0 -0 -0 -0 0 0 0 0 0 0 0 0 0 0 0 0 0 0 0 0 0 0 0 0 0 0 0
0 0 0 0 0 0 0 0 0 0 0 0 0 -0 -0 -0 -0 -0 0 0 0 0 0 0 0 0 0 0 0 0 0 0 0 0 0 0 0 0 0 0 0 0 0
0 0 0 0 0 0 0 0 0 0 0 0 0 -0 -0 -0 -0 -0 0 0 0 0 0 0 0 0 0 0 0 0 0 0 0 0 0 0 0 0 0 0 0 0 0
Wind_Speed
4 3 2 2 3 2 2 2 2 3 3 3 3 4 5 6 6 5 4 11 13 15 16 17 17 17 16 16 15 15 14 14 14 13 12 12 11 11 10 10 9 9 8
4 4 3 3 3 3 3 3 3 3 3 2 3 4 4 5 5 6 5 7 12 14 15 17 17 18 17 17 17 16 15 15 14 14 13 12 12 11 11 10 10 9 8
5 4 3 4 4 3 3 2 2 1 2 2 3 3 3 4 4 5 5 5 6 11 14 15 15 16 18 18 17 17 17 16 16 15 14 14 13 12 12 11 10 9 8
6 4 4 4 4 3 3 2 2 1 2 2 2 2 2 2 3 4 4 4 4 5 9 12 13 14 16 17 17 18 18 17 17 16 15 14 13 12 11 10 9 8 7
6 5 4 3 3 2 2 3 2 2 2 2 2 2 2 2 2 3 3 4 4 4 4 7 12 14 15 16 16 17 17 17 16 15 15 13 12 10 9 8 7 7 6
5 4 3 2 2 2 2 2 2 2 2 2 1 1 1 1 2 2 3 2 2 3 3 3 5 7 12 13 13 15 15 15 14 13 13 12 11 9 9 8 7 5 4
4 4 3 2 2 2 2 3 2 1 1 1 0 1 2 1 1 2 2 2 2 2 1 2 2 2 3 7 10 11 13 13 12 12 12 11 10 9 7 6 5 4 3
3 3 4 3 2 2 1 1 1 1 1 1 1 1 2 2 1 2 2 2 2 2 2 2 2 2 2 1 2 6 8 9 10 9 9 8 8 8 6 5 4 3 2
5 5 4 3 3 2 1 1 0 1 1 1 1 1 2 2 1 2 3 3 3 3 3 3 3 2 2 1 1 1 1 2 4 5 6 7 7 6 5 3 2 0 1
8 7 6 6 5 4 4 3 3 1 0 0 0 0 1 0 1 1 1 3 4 5 5 4 4 4 4 2 3 6 7 8 8 7 6 7 6 6 5 3 1 2 3
10 9 9 8 7 6 6 6 6 5 3 2 2 1 1 1 1 1 1 2 3 4 5 5 4 4 4 4 3 7 10 11 10 9 9 7 6 4 3 2 2 3 4
8 10 10 9 9 8 8 7 7 8 6 7 5 5 4 3 2 1 1 1 1 3 4 5 5 4 4 4 6 10 12 12 10 8 6 5 4 3 2 3 4 5 6
7 9 9 9 9 9 9 8 9 9 9 9 8 6 6 5 3 2 2 1 1 2 3 4 5 5 5 4 5 10 10 9 7 5 4 3 2 3 4 5 6 7 8
8 8 10 11 10 10 10 9 9 9 9 9 10 8 6 6 5 4 3 1 1 2 4 4 3 5 4 4 5 7 5 6 5 3 2 2 4 5 6 7 8 9 10
9 10 11 11 11 11 10 9 8 8 8 9 8 8 7 6 5 5 4 3 2 2 3 3 3 3 3 2 4 3 2 3 3 4 4 5 6 7 8 9 10 10 11
10 11 11 11 11 10 9 9 8 8 9 8 6 8 8 6 5 5 5 4 4 2 2 2 2 2 3 3 4 3 2 5 5 6 6 6 7 8 9 9 10 11 11
11 11 10 10 10 10 9 9 9 8 9 8 7 8 8 6 5 5 5 5 5 3 3 1 2 2 3 3 3 3 3 3 3 7 7 7 7 8 9 9 9 10 9
10 10 10 10 10 9 9 9 9 8 8 8 7 7 7 6 7 5 5 6 4 4 2 2 2 2 2 3 3 3 3 3 3 6 7 8 8 8 8 8 8 7 7
10 10 10 10 9 8 8 7 7 7 7 6 6 6 5 6 6 4 5 4 3 3 2 1 2 2 2 2 3 3 3 3 4 5 5 6 7 7 7 7 6 6 5
9 8 8 8 8 7 7 7 7 7 6 6 5 5 4 4 4 4 4 4 3 3 3 2 2 2 2 2 2 2 3 3 4 3 4 5 5 6 7 6 6 5 5
8 7 8 8 7 7 6 6 6 6 6 6 6 5 5 6 7 4 3 2 2 2 2 2 2 2 2 2 2 2 3 4 3 2 4 4 4 3 4 5 5 5 5
6 7 8 8 8 6 8 9 7 5 5 6 5 5 4 6 8 8 8 5 3 1 1 1 1 2 3 3 2 2 2 3 3 2 3 4 3 3 3 3 5 6 6
5 6 6 6 6 7 10 9 9 5 5 5 4 4 4 5 6 5 7 7 6 4 2 2 3 3 3 3 3 3 2 3 4 3 3 3 2 3 3 3 6 6 6
4 4 4 5 5 7 9 9 8 5 5 5 4 4 4 5 6 6 6 6 6 5 4 2 4 6 6 6 5 3 3 4 5 3 2 2 3 3 3 3 4 7 7
3 3 3 4 5 6 9 8 6 4 4 5 5 4 5 5 8 8 5 6 7 5 4 5 7 8 10 9 6 3 2 2 3 2 0 2 3 3 3 3 3 6 8
3 4 5 5 5 5 8 9 6 3 4 5 5 5 6 7 9 7 3 4 6 6 7 8 7 6 4 3 2 4 3 2 2 2 0 1 2 3 3 2 3 4 5
Wind_Direction
191 193 198 203 207 197 199 213 228 244 253 257 248 242 242 237 230 223 224 227 220 217 214 210 207 207 206 204 203 202 202 201 199 197 195 192 189 186 184 182 180 177 174
189 195 205 210 217 211 207 210 223 239 254 264 265 254 249 246 239 229 222 229 228 221 220 217 214 212 211 211 209 208 208 208 206 203 201 198 194 191 189 188 186 184 181
193 195 202 213 219 210 207 212 226 241 257 260 268 267 253 242 243 237 228 224 228 228 225 223 219 217 216 217 214 214 214 212 211 208 205 202 199 196 195 193 193 191 190
194 193 204 219 214 196 194 199 203 217 251 254 265 280 279 267 256 248 236 226 224 230 233 231 226 221 221 222 222 222 220 217 215 212 209 206 203 201 197 195 194 193 194
197 194 208 219 198 186 192 201 190 189 219 233 244 264 277 279 281 271 258 245 234 233 236 235 231 229 227 228 230 229 227 223 219 216 211 206 199 191 187 184 181 181 185
188 189 199 198 177 174 182 176 184 190 208 214 237 271 288 288 292 285 279 279 270 261 252 247 242 240 234 231 232 233 232 227 219 210 202 194 184 173 167 165 165 166 172
164 167 173 156 158 173 184 175 171 184 213 164 152 299 299 295 310 312 313 318 318 314 302 280 269 260 253 247 241 239 238 230 217 206 196 185 175 166 164 165 168 175 193
124 140 135 130 132 132 129 151 163 170 197 174 177 216 292 306 332 354 355 350 340 352 350 338 319 292 275 263 260 246 242 235 223 200 184 169 157 155 163 171 175 186 223
72 81 94 98 90 96 91 56 3 200 217 198 183 191 226 253 327 13 25 20 13 11 4 8 7 355 342 355 326 316 231 193 191 184 159 144 141 138 136 131 123 144 295
60 64 71 75 72 65 59 42 38 27 83 226 98 345 246 227 233 309 23 36 33 24 16 16 19 25 29 37 62 76 87 93 104 109 109 108 112 113 105 85 35 339 321
60 60 62 65 65 61 56 50 50 53 48 46 36 10 4 12 336 255 304 27 38 29 28 27 26 30 35 43 61 79 86 87 86 89 91 90 87 86 84 68 345 328 315
62 58 62 63 63 62 61 60 62 63 63 64 56 48 41 31 11 360 11 33 32 25 30 33 27 30 38 42 68 81 83 83 83 79 76 72 63 45 12 339 318 310 305
65 58 64 64 63 62 64 64 64 61 61 65 62 58 52 42 18 13 41 28 46 35 27 34 24 21 38 44 58 72 75 77 76 71 56 32 6 337 317 306 301 300 297
72 67 69 70 67 66 66 65 65 63 62 63 61 59 56 43 35 34 34 33 55 45 39 27 13 20 27 42 57 61 67 64 56 43 15 343 317 300 292 289 290 291 289
79 72 71 71 67 65 65 67 66 63 62 61 59 57 54 43 38 36 39 39 66 63 36 11 12 5 8 33 45 37 31 21 360 341 325 310 300 293 289 287 284 283 282
74 73 69 68 67 64 63 67 65 60 63 57 56 56 50 40 39 36 39 40 44 77 69 15 9 352 357 24 25 13 359 347 333 326 318 309 301 293 289 286 285 285 284
71 71 70 70 67 63 62 66 64 60 62 56 51 54 50 43 42 34 37 41 39 48 78 26 357 353 4 9 358 352 343 327 317 311 306 301 294 290 289 291 293 293 290
70 70 69 68 66 63 60 62 64 60 59 55 49 52 46 46 43 35 38 39 36 33 54 34 356 353 351 347 341 332 327 322 307 299 299 295 293 293 296 299 300 299 297
69 66 66 66 63 61 60 59 62 60 57 53 49 50 42 44 40 32 34 33 27 32 40 39 350 331 320 334 336 323 318 310 306 304 295 295 306 315 316 315 312 307 305
69 66 65 64 61 59 57 56 57 56 52 47 46 45 40 42 37 23 24 21 21 25 24 20 356 338 321 323 323 329 329 326 317 322 325 319 319 325 328 330 327 327 326
67 64 64 57 51 51 48 54 52 53 47 42 37 32 33 43 40 28 16 6 11 13 8 3 350 331 321 326 330 324 315 320 309 329 323 322 329 331 339 340 341 343 341
62 61 59 58 52 47 48 58 63 54 48 43 33 20 21 29 20 17 12 6 354 330 325 318 312 308 302 294 294 305 314 331 320 342 324 314 330 326 337 341 347 353 359
65 64 61 62 55 41 47 54 57 59 49 40 30 16 10 8 6 357 353 358 354 337 275 235 265 275 279 275 293 301 299 294 286 307 320 302 322 320 336 346 353 2 1
71 69 63 61 55 39 40 47 50 51 46 32 20 8 356 347 351 349 345 346 341 333 312 270 257 268 268 270 256 266 295 295 281 270 247 289 321 320 327 331 347 355 352
68 68 67 61 54 31 32 40 42 32 26 11 2 358 351 342 337 347 350 342 337 333 323 309 285 278 276 274 257 233 253 284 315 327 251 285 316 319 314 314 333 346 347
74 79 70 58 54 39 29 34 35 29 17 357 347 349 352 342 334 338 335 331 331 328 335 337 336 333 324 317 250 215 233 253 291 307 311 296 324 335 324 316 320 335 344